Weather in Alpharetta

United States     34°04′22″N   84°17′42″W
temp.,
°C
wind,
m/s
gust,
m/s
humid.,
%
clouds,
%
prec.,
mm/h
press.,
hPa
HPBL,
m
6 may, thu
thu623:00+16nw49750 0.0 1017483
02:00+13nnw27820 0.0 1017340
05:00+12wnw2580100 0.0 1017198
08:00+12n357166 0.0 1020291
11:00+18n22565 0.0 10181035
14:00+22wnw34300 0.0 10161648
17:00+22nw57280 0.0 10151820
20:00+19wnw48380 0.0 10151051
7 may, fri
fri723:00+16wnw5115611 0.0 1016937
02:00+13wnw513720 0.0 1016684
05:00+10nw512830 0.0 1016778
08:00+11nw611720 0.0 10171018
11:00+15nw610320 0.0 10181527
14:00+18nw710315 0.0 10182076
17:00+19nw69290 0.0 10172330
20:00+17nw48390 0.0 10181731
8 may, sat
sat823:00+14nw39520 0.0 1019520
02:00+12wnw27612 0.0 1019226
05:00+11wnw26664 0.0 1018191
08:00+12w3761100 0.0 1020268
11:00+15wnw3650100 0.0 1021625
14:00+21wnw473745 0.0 10201717
17:00+20wnw4641100 0.0 10181410
20:00+17nnw2455100 0.0 1019376
9 may, sun
sun923:00+16ene126373 0.0 101984
02:00+14se126839 0.0 101933
05:00+14sse1270100 0.0 101953
08:00+15sse2468100 0.0 1019172
11:00+22s474022 0.0 1018968
14:00+27ssw61029100 0.0 10161872
17:00+28ssw6102862 0.0 10131995
20:00+25sw41145100 0.0 10141526
10 may, mon
mon1023:00+23sw51152100 0.0 1014905
02:00+20sw4126297 0.0 1014766
05:00+19sw41276100 0.0 1013788
08:00+18sw3896100 2.6 1014604
11:00+18w389795 21.4 1014532
14:00+23w477073 21.8 10131232
17:00+24w5763100 0.1 10131141
20:00+21wnw39780 0.1 1014678